Content
SEND FEEDBACK

Daily
Averages
Monthly
Summary
United States of America

ST. LOUIS, MISSOURI


Home > North America > United States > Missouri
Elevation: 163 meters     Latitude: 38 45N     Longitude: 090 22W

WEATHER
 
SELECT A DAY
Number of Records: 199,751;   Date Range: 1/1/95 - 10/24/14
 
SHARE

PRINT THIS DATA

[ ← Previous Day ]
WEATHER ALMANAC - 12 JUNE, 2013
[ Next Day → ]
[ °F ]   °C
Weather ElementAverageHighLow
Temperature29.3 °C34.4 °C (2:54 pm)21.1 °C (5:54 am)
Dewpoint20.8 °C22.2 °C (10:54 am)18.9 °C (4:54 am)
Humidity61.5 %87 % (5:54 am)46 % (4:54 pm)
Barometer1009.1 hPa1013.2 hPa (7:54 am)1006.1 hPa (7:54 pm)
Wind Speed15 km/h31.5 km/h (4:54 pm)
Wind Gust46.3 km/h (4:54 pm)
Weather ElementAverage
Visibility16.1 km
Wind DirectionS (175.2 °)

Weather ElementTotal
Precipitation---
Cooling Degree Days9.4 (Base 18.3)
Growing Degree Days17.8 (Base 10)
Averaged from 23 records on 12 June, 2013
WEATHER CONDITIONS BREAKOUT
WIND DIRECTION BREAKOUT
WEATHER BY HOUR - 12 JUNE, 2013
[ °F ]   °C
Local TimeTemperatureDewpointHumidityBarometerVisibilityWind DirectionWind SpeedGust SpeedPrecipitationEventsConditions
1:54 AM26.7 °C20 °C67 %1010.8 hPa16.1 kmSW (220°)7.4 km/hClear
2:54 AM24.4 °C20 °C76 %1010.8 hPa16.1 kmCalmClear
3:54 AM24.4 °C19.4 °C74 %1010.5 hPa16.1 kmCalmClear
4:54 AM21.7 °C18.9 °C84 %1011.2 hPa16.1 kmCalmClear
5:54 AM21.1 °C18.9 °C87 %1011.5 hPa16.1 kmCalmPartly Cloudy
6:54 AM23.3 °C20.6 °C85 %1012.5 hPa16.1 kmCalmScattered Clouds
7:54 AM26.1 °C21.1 °C74 %1013.2 hPa16.1 kmSSW (200°)9.3 km/hClear
8:54 AM26.7 °C21.7 °C74 %1012.9 hPa16.1 kmSSW (200°)11.1 km/hMostly Cloudy
9:54 AM28.3 °C21.7 °C67 %1012.2 hPa16.1 kmSW (230°)14.8 km/hPartly Cloudy
10:54 AM30.6 °C22.2 °C61 %1011.2 hPa16.1 kmSSW (210°)18.5 km/h37 km/hScattered Clouds
11:54 AM32.2 °C22.2 °C55 %1010.5 hPa16.1 kmSW (220°)25.9 km/h33.3 km/hPartly Cloudy
12:54 PM33.3 °C21.7 °C50 %1009.5 hPa16.1 kmSSW (210°)18.5 km/h29.6 km/hPartly Cloudy
1:54 PM33.9 °C21.7 °C49 %1008.5 hPa16.1 kmSW (220°)20.4 km/h33.3 km/hScattered Clouds
2:54 PM34.4 °C21.7 °C47 %1007.8 hPa16.1 kmSSW (210°)25.9 km/h42.6 km/hPartly Cloudy
3:54 PM34.4 °C22.2 °C49 %1007.1 hPa16.1 kmSW (220°)24.1 km/h35.2 km/hClear
4:54 PM34.4 °C21.1 °C46 %1006.8 hPa16.1 kmSW (230°)31.5 km/h46.3 km/hPartly Cloudy
5:54 PM33.9 °C22.2 °C50 %1006.4 hPa16.1 kmSW (230°)13 km/h29.6 km/hScattered Clouds
6:54 PM32.8 °C21.1 °C50 %1006.4 hPa16.1 kmWSW (240°)18.5 km/hScattered Clouds
7:54 PM32.2 °C20.6 °C50 %1006.1 hPa16.1 kmWSW (240°)25.9 km/h37 km/hMostly Cloudy
8:54 PM30.6 °C19.4 °C51 %1006.1 hPa16.1 kmSW (230°)20.4 km/h31.5 km/hClear
9:54 PM30 °C19.4 °C53 %1006.4 hPa16.1 kmWSW (240°)18.5 km/hClear
10:54 PM29.4 °C20 °C57 %1006.4 hPa16.1 kmWSW (240°)18.5 km/hClear
11:54 PM28.9 °C20 °C58 %1006.4 hPa16.1 kmWSW (240°)20.4 km/hClear
Hourly data recorded from KSUS, located 0 kilometers away from St. Louis, Missouri







STORIES FROM OUR PARTNERS